Location: Twentynine Palms Airport
(34.1316°N, 115.9458°W)
Time: 14:01:40
(UTC-07:00)

Oscar 19 - Visible Passes

Search period start: 01 September 2014 00:00
Search period end: 11 September 2014 00:00
Orbit: 775 x 790 km, 98.5° (Epoch: 01 September)

Date Brightness Start Highest point End Pass type
(mag) Time Alt. Az. Time Alt. Az. Time Alt. Az.
01 Sep 13.5 01:53:40 10° NNE 01:54:03 12° NNE 01:54:03 12° NNE visible
01 Sep 13.1 03:34:04 10° NNW 03:34:38 12° NNW 03:34:38 12° NNW visible
02 Sep 13.0 03:01:34 10° N 03:02:36 15° N 03:02:36 15° N visible
03 Sep 13.2 02:29:42 10° N 02:30:34 15° N 02:30:34 15° N visible
04 Sep 13.6 01:58:18 10° NNE 01:58:32 11° NNE 01:58:32 11° NNE visible
04 Sep 13.2 03:39:01 10° NNW 03:39:06 10° NNW 03:39:06 10° NNW visible
05 Sep 13.1 03:06:22 10° N 03:07:04 14° NNW 03:07:04 14° NNW visible
06 Sep 13.3 02:34:25 10° N 02:35:01 14° N 02:35:01 14° N visible
07 Sep 13.7 02:02:56 10° NNE 02:02:59 10° NNE 02:02:59 10° NNE visible
08 Sep 13.2 03:11:10 10° N 03:11:31 12° NNW 03:11:31 12° NNW visible
09 Sep 13.4 02:39:08 10° N 02:39:29 12° N 02:39:29 12° N visible
